Location: Newark
(52.8300°N, 8.0000°E)
Time: 10:47:53
(UTC+00:00)

STARLINK-1095 - Pass Details

Date: 30 January 2020
Orbit: 348 x 351 km, 53.0° (Epoch: 19 February)

Event Time Altitude Azimuth Distance (km) Brightness Sun altitude
Rises 18:07:13 0° 283° (WNW) 2,167 8.1 -17.9°
Reaches altitude 10° 18:09:29 10° 267° (W) 1,321 6.9 -18.2°
Maximum altitude 18:11:51 22° 213° (SSW) 834 5.0 -18.6°
Enters shadow 18:13:11 16° 176° (S) 1,014 5.0 -18.8°
